This is the latest recevied weather packets stored in our database for station/object S57PNX-8. If no packets are shown the sender has not sent any weather packets the latest 10 day(s).
| Time | Temp. | Humidity | Pressure | Rain* | Wind** | Luminosity | Snow |
|---|---|---|---|---|---|---|---|
| 1777993747 | 10.56° C | 100% | 1018.5 hPa | - | - | - | - |
| 1777992848 | 10.56° C | 99% | 1018.5 hPa | - | - | - | - |
| 1777991949 | 11.11° C | 100% | 1018.6 hPa | - | - | - | - |
| 1777991046 | 11.11° C | 99% | 1018.7 hPa | - | - | - | - |
| 1777989247 | 11.11° C | 97% | 1019.1 hPa | - | - | - | - |
| 1777988348 | 11.67° C | 94% | 1019.2 hPa | - | - | - | - |
| 1777987447 | 11.67° C | 94% | 1019.1 hPa | - | - | - | - |
| 1777986737 | 11.67° C | 94% | 1019.2 hPa | - | - | - | - |
| 1777986545 | 11.67° C | 94% | 1019.2 hPa | - | - | - | - |
| 1777985646 | 11.67° C | 92% | 1019.4 hPa | - | - | - | - |
| 1777984748 | 11.67° C | 93% | 1019.6 hPa | - | - | - | - |
| 1777983849 | 11.67° C | 95% | 1019.8 hPa | - | - | - | - |
| 1777983009 | 11.67° C | 99% | 1019.8 hPa | - | - | - | - |
| 1777982956 | 11.67° C | 99% | 1019.8 hPa | - | - | - | - |
| 1777982051 | 11.67° C | 93% | 1020 hPa | - | - | - | - |
| 1777981152 | 11.67° C | 91% | 1020.1 hPa | - | - | - | - |
| 1777980253 | 11.67° C | 89% | 1020.1 hPa | - | - | - | - |
| 1777979657 | 11.67° C | 94% | 1020.3 hPa | - | - | - | - |
| 1777979354 | 11.67° C | 94% | 1020.3 hPa | - | - | - | - |
| 1777978457 | 11.67° C | 92% | 1020.4 hPa | - | - | - | - |
| 1777977553 | 11.67° C | 89% | 1020.5 hPa | - | - | - | - |
| 1777976654 | 11.67° C | 89% | 1020.5 hPa | - | - | - | - |
| 1777975756 | 11.67° C | 91% | 1020.5 hPa | - | - | - | - |
| 1777974857 | 11.67° C | 98% | 1020.6 hPa | - | - | - | - |
| 1777973952 | 11.67° C | 97% | 1020.7 hPa | - | - | - | - |
* Rain since midnight (hover to see other rain measurements)
** Current wind speed in m/s (hover to see current wind gust speed)